Regional Weather Roundup
Issued by NWS

Home | Current Version | Previous Version | Graphics & Text | Print | Product List | Glossary On
Versions: 1 2 3 4 5 6 7 8 9 10 11 12 13 14 15 16 17 18 19 20 21 22 23 24 25 26 27 28 29 30 31 32 33 34 35 36 37 38 39 40 41 42 43 44 45 46 47 48 49 50
083
ASUS45 KPSR 220310
RWRAZ

ARIZONA HOURLY REGIONAL WEATHER ROUNDUP
NATIONAL WEATHER SERVICE PHOENIX AZ
800 PM MST THU MAY 21 2015

NOTE: FAIR INDICATES FEW OR NO CLOUDS BELOW 12,000 FEET WITH NO
SIGNIFICANT WEATHER AND/OR OBSTRUCTIONS TO VISIBILITY.

AZZ001>003-036-220400-
NORTHWEST ARIZONA

CITY           SKY/WX    TMP DP  RH WIND       PRES   REMARKS
BULLHEAD CITY  CLEAR     82  23  11 S12       29.70R
KINGMAN        CLEAR     68  17  14 S12       29.83R
$$

AZZ004>008-015-016-018-220400-
NORTH CENTRAL ARIZONA

CITY           SKY/WX    TMP DP  RH WIND       PRES   REMARKS
GRAND CANYON   PTCLDY    44  36  73 CALM      29.98R
WILLIAMS       CLEAR     52  25  35 SW7       30.06R
PRESCOTT       CLEAR     60  27  28 SW7       29.93S
FLAGSTAFF      CLEAR     49  26  41 W5        30.00S
PAYSON         PTCLDY    61  28  29 SW8       29.96R
$$

AZZ009>014-017-220400-
NORTHEAST ARIZONA

CITY           SKY/WX    TMP DP  RH WIND       PRES   REMARKS
WINSLOW        CLEAR     63  23  21 SW10      29.92R
SAINT JOHNS    MOCLDY    62  27  26 SW16      29.95R
WINDOW ROCK    CLOUDY    52  38  58 S3        29.98S
SHOW LOW       PTCLDY    55  23  28 SW9       30.00R
$$

AZZ023-220400-
GREATER PHOENIX AREA

CITY           SKY/WX    TMP DP  RH WIND       PRES   REMARKS
PHOENIX        CLEAR     81  30  15 W16       29.76R
BUCKEYE          N/A     73  37  27 S8        29.78R
GLENDALE       CLEAR     79  32  18 S10       29.78R
LUKE AFB       CLEAR     78  34  20 S6        29.76R
DEER VALLEY    CLEAR     77  27  15 SW16      29.78R
SCOTTSDALE     CLEAR     78  27  15 W10G17    29.79R
MESA-FALCON    CLEAR    N/A N/A N/A SW9       29.78R
MESA-GATEWAY   CLEAR     75  25  15 SW9       29.80R
CHANDLER       CLEAR     79  19  11 S15       29.78R
$$

AZZ027-028-220400-
SOUTHWEST MARICOPA COUNTY AND PINAL COUNTY

CITY           SKY/WX    TMP DP  RH WIND       PRES   REMARKS
CASA GRANDE    CLEAR     75  18  11 S10       29.80R
GILA BEND      CLEAR     77  45  32 SW12      29.77R
$$

AZZ503-504-507>509-220400-
SOUTHEAST ARIZONA

CITY           SKY/WX    TMP DP  RH WIND       PRES   REMARKS
TUCSON         CLEAR     76  30  18 SW12      29.88R
DAVIS-MONTHAN  CLEAR     75  31  19 SW13      29.87R
RYAN FIELD       N/A     77  34  20 SW14      29.87R
NOGALES        CLEAR     67  29  24 SW8       29.95R
SIERRA VISTA   CLEAR     67  17  14 SW10      30.00R
DOUGLAS        CLEAR     68  19  15 SW13      29.98R
SAFFORD        PTCLDY    76  25  15 W6        29.84R
$$

AZZ020-021-025-026-031-220400-
SOUTHWEST ARIZONA

CITY           SKY/WX    TMP DP  RH WIND       PRES   REMARKS
YUMA           PTCLDY    74  39  28 NW15      29.79R
$$

CAZ031-033-041-043-047-048-061-220400-
SOUTHERN CALIFORNIA

CITY           SKY/WX    TMP DP  RH WIND       PRES   REMARKS
DOWNTOWN L.A.  MOCLDY    62  47  57 CALM      29.94S
L.A. AIRPORT   PTCLDY    59  51  75 W15       29.96R
SAN DIEGO      MOCLDY    63  51  65 W12       30.00S
BURBANK        MOCLDY    61  45  55 SE7       29.94R
ONTARIO        MOCLDY    61  46  57 SW14      29.94R
RIVERSIDE      MOCLDY    62  48  60 W13G21    29.94R
PALM SPRINGS   CLEAR     74  38  27 NW18G25   29.78R
EL CENTRO NAS  PTCLDY    68  40  35 W37G45    29.83R
IMPERIAL       CLEAR     67  41  38 W24G37    29.80R
BLYTHE         CLEAR     76  39  26 SW20      29.76R
NEEDLES        CLEAR     82  28  14 SW15      29.72R
$$

NVZ020-UTZ003-220400-
SOUTHERN NEVADA-UTAH

CITY           SKY/WX    TMP DP  RH WIND       PRES   REMARKS
LAS VEGAS      MOCLDY    73  34  23 SW14      29.72R
SALT LAKE CITY CLOUDY    60  46  59 CALM      29.89R
$$

NMZ009-TXZ055-220400-
NEW MEXICO-WEST TEXAS

CITY           SKY/WX    TMP DP  RH WIND       PRES   REMARKS
ALBUQUERQUE    CLOUDY    51  42  71 E28G36    30.04R
EL PASO        MOCLDY    65  54  67 E10       29.97R
$$


........................KEY........................
SKY/WX - SKY CONDITION/WEATHER
TMP    - TEMPERATURE IN FAHRENHEIT
DP     - DEW POINT IN FAHRENHEIT
RH     - RELATIVE HUMIDITY IN PERCENT
WIND   - DIRECTION AND SPEED IN MILES PER HOUR (MPH)
VRB    - VARIABLE WIND DIRECTION
PRES   - MEAN SEA LEVEL PRESSURE IN INCHES OF MERCURY
         F - FALLING PRESSURE   R - RISING PRESSURE
         S - STEADY PRESSURE
VSB    - VISIBILITY IN MILES
HX     - HEAT INDEX IN FAHRENHEIT
WCI    - WIND CHILL INDEX IN FAHRENHEIT
TC     - TEMPERATURE IN CELSIUS WHICH IS ALSO KNOWN AS
         TEMPERATURE IN CENTIGRADE
AFB    - AIR FORCE BASE
         LUKE AFB IS LUKE AIR FORCE BASE
         DAVIS-MONTHAN IS DAVIS-MONTHAN AIR FORCE BASE
NAS    - NAVAL AIR STATION
         EL CENTRO NAS IS EL CENTRO NAVAL AIR STATION
N/A    - NOT AVAILABLE




USA.gov is the U.S. government's official web portal to all federal, state and local government web resources and services.